Weather History for New York, NY

Change the Weather History Date:

Saturday, November 12, 2011

  Actual Average Record
Temperature  
Mean Temperature 49 °F 50 °F  
Max Temperature 57 °F 56 °F 67 °F (1956)
Min Temperature 40 °F 43 °F 24 °F (1943)
Degree Days  
Heating Degree Days 16 16  
Month to date heating degree days 164 167  
Since 1 July heating degree days 406 439  
Cooling Degree Days 0 0  
Month to date cooling degree days 0 0  
Year to date cooling degree days 1375 1213  
Moisture  
Dew Point 27 °F    
Average Humidity 40    
Maximum Humidity 54    
Minimum Humidity 25    
Precipitation  
Precipitation 0.00 in 0.11 in 1.74 in (1975)
Month to date precipitation 0.01 1.32  
Year to date precipitation 58.58 39.08  
Snow  
Snow 0.00 in 0.00 in - ()
Month to date snowfall 0.0 0.0  
Since 1 July snowfall 1.7 0.0  
Snow Depth 0.00 in    
Sea Level Pressure  
Sea Level Pressure 30.09 in    
Wind  
Wind Speed 12 mph (SW)    
Max Wind Speed 21 mph    
Max Gust Speed 28 mph    
Visibility 10 miles    
Events      
T = Trace of Precipitation, MM = Missing Value Source: NWS Daily Summary

Daily Weather History Graph

Daily Weather History Graph

Search for Another Location

Airport:

Trip Planner

Search our weather history database for the weather conditions in past years. The results will help you decide how hot, cold, wet, or windy it might be!

Date:

Astronomy

Nov. 12, 2011 Rise Set
Actual Time 6:38 AM EST 4:40 PM EST
Civil Twilight 6:09 AM EST 5:09 PM EST
Nautical Twilight 5:36 AM EST 5:42 PM EST
Astronomical Twilight 5:04 AM EST 6:14 PM EST
Moon 5:53 PM EST (11/12) 8:19 AM EST (11/12)
Length of Visible Light 10h 59m
Length of Day
10h 01m
Full, 97% of the Moon is Illuminated
Nov 12
Full
Nov 18
Last Quarter
Nov 25
New
Dec 2
First Quarter
Dec 10
Full

Hourly Weather History & Observations

Time (EST) Temp. Windchill Dew Point Humidity Pressure Visibility Wind Dir Wind Speed Gust Speed Precip Events Conditions
12:51 AM 42.1 °F 34.9 °F 26.1 °F 53% 30.04 in 10.0 mi West 13.8 mph 23.0 mph N/A   Clear
1:51 AM 42.1 °F 34.2 °F 26.1 °F 53% 30.06 in 10.0 mi West 16.1 mph 21.9 mph N/A   Clear
2:51 AM 42.1 °F 34.5 °F 27.0 °F 55% 30.07 in 10.0 mi West 15.0 mph - N/A   Partly Cloudy
3:51 AM 42.1 °F 35.7 °F 25.0 °F 51% 30.09 in 10.0 mi West 11.5 mph 21.9 mph N/A   Clear
4:51 AM 42.1 °F 36.1 °F 24.1 °F 49% 30.10 in 10.0 mi WSW 10.4 mph 19.6 mph N/A   Clear
5:51 AM 41.0 °F 33.9 °F 24.1 °F 51% 30.10 in 10.0 mi SW 12.7 mph - N/A   Clear
6:51 AM 39.9 °F 32.5 °F 25.0 °F 55% 30.12 in 10.0 mi WSW 12.7 mph - N/A   Clear
7:51 AM 42.1 °F 36.6 °F 25.0 °F 51% 30.13 in 10.0 mi SW 9.2 mph - N/A   Partly Cloudy
8:51 AM 44.1 °F 37.4 °F 24.1 °F 45% 30.12 in 10.0 mi WSW 13.8 mph - N/A   Partly Cloudy
9:51 AM 46.9 °F - 23.0 °F 39% 30.12 in 10.0 mi SSW 13.8 mph - N/A   Partly Cloudy
10:51 AM 50.0 °F - 23.0 °F 35% 30.12 in 10.0 mi SW 16.1 mph 24.2 mph N/A   Scattered Clouds
11:51 AM 51.1 °F - 23.0 °F 33% 30.09 in 10.0 mi SW 17.3 mph 23.0 mph N/A   Partly Cloudy
12:51 PM 53.6 °F - 24.8 °F 33% 30.06 in 10.0 mi South 15.0 mph 21.9 mph N/A   Clear
1:51 PM 55.0 °F - 23.0 °F 29% 30.03 in 10.0 mi SW 9.2 mph 24.2 mph N/A   Clear
2:51 PM 57.0 °F - 23.0 °F 27% 30.02 in 10.0 mi SW 12.7 mph 21.9 mph N/A   Clear
3:51 PM 55.9 °F - 27.0 °F 33% 30.04 in 10.0 mi WSW 11.5 mph - N/A   Partly Cloudy
4:51 PM 55.0 °F - 28.0 °F 35% 30.05 in 10.0 mi WSW 11.5 mph - N/A   Partly Cloudy
5:51 PM 55.0 °F - 28.9 °F 37% 30.07 in 10.0 mi SW 9.2 mph - N/A   Clear
6:51 PM 55.0 °F - 30.0 °F 38% 30.09 in 10.0 mi SW 10.4 mph - N/A   Clear
7:51 PM 54.0 °F - 30.9 °F 41% 30.11 in 10.0 mi SW 9.2 mph - N/A   Clear
8:51 PM 53.1 °F - 30.9 °F 43% 30.12 in 10.0 mi SW 8.1 mph - N/A   Clear
9:51 PM 52.0 °F - 32.0 °F 47% 30.13 in 10.0 mi SW 6.9 mph - N/A   Clear
10:51 PM 53.1 °F - 32.0 °F 45% 30.12 in 10.0 mi SW 8.1 mph - N/A   Clear
11:51 PM 52.0 °F - 32.0 °F 47% 30.12 in 10.0 mi South 6.9 mph - N/A   Partly Cloudy